User: anonymous   Login
Location: Unspecified
(0.0000°N, 0.0000°E)
Time: 20:10:52
(UTC+00:00)
Language:

STARLINK-5804 - Orbit

View from above orbital plane
View from above orbital plane
View from above satellite
View from above satellite

Ground track
Ground track

The orbit is defined by the following mean orbital elements,

1 55788U          26145.59746028 +.00000000 +00000-0 -13919-5 0 00004
2 55788  69.9996  10.6507 0002556 271.6021  88.4846 14.98329470    04
Epoch (UTC): 25 May 2026 14:20:20
Eccentricity: 0.0002556
inclination: 69.9996°
perigee height: 570 km
apogee height: 574 km
right ascension of ascending node: 10.6507°
argument of perigee: 271.6021°
revolutions per day: 14.98329470
mean anomaly at epoch: 88.4846°

The dashed part of the orbit path shows where the satellite is in the earth's shadow,  

DLR